Weather History for Harlingen, TX

Change the Weather History Date:

Sunday, November 13, 2011

  Actual Average Record
Temperature  
Mean Temperature 76 °F 69 °F  
Max Temperature 89 °F 81 °F 91 °F (1921)
Min Temperature 63 °F 58 °F 38 °F (1934)
Degree Days  
Heating Degree Days 0 1  
Month to date heating degree days 23 8  
Since 1 July heating degree days 25 11  
Cooling Degree Days 11 6  
Month to date cooling degree days 86 89  
Year to date cooling degree days 4512 3865  
Growing Degree Days 26 (Base 50)    
Moisture  
Dew Point 66 °F    
Average Humidity 73    
Maximum Humidity 100    
Minimum Humidity 46    
Precipitation  
Precipitation 0.00 in 0.04 in 1.32 in (2008)
Month to date precipitation 0.07 0.93  
Year to date precipitation 6.73 23.35  
Sea Level Pressure  
Sea Level Pressure 29.90 in    
Wind  
Wind Speed 13 mph (SSE)    
Max Wind Speed 29 mph    
Max Gust Speed 35 mph    
Visibility 10 miles    
Events      
T = Trace of Precipitation, MM = Missing Value Source: NWS Daily Summary

Daily Weather History Graph

Daily Weather History Graph

Search for Another Location

Airport:

Trip Planner

Search our weather history database for the weather conditions in past years. The results will help you decide how hot, cold, wet, or windy it might be!

Date:

Astronomy

Nov. 13, 2011 Rise Set
Actual Time 6:47 AM CST 5:41 PM CST
Civil Twilight 6:23 AM CST 6:06 PM CST
Nautical Twilight 5:55 AM CST 6:33 PM CST
Astronomical Twilight 5:28 AM CST 7:01 PM CST
Moon 8:01 PM CST (11/13) 9:11 AM CST (11/13)
Length of Visible Light 11h 42m
Length of Day
10h 54m
Waning Gibbous, 92% of the Moon is Illuminated
Nov 13
Waning Gibbous
Nov 18
Last Quarter
Nov 25
New
Dec 2
First Quarter
Dec 10
Full

Hourly Weather History & Observations

Time (CST) Temp. Heat Index Dew Point Humidity Pressure Visibility Wind Dir Wind Speed Gust Speed Precip Events Conditions
12:52 AM 71.1 °F - 66.9 °F 87% 29.96 in 10.0 mi South 6.9 mph - N/A   Mostly Cloudy
1:52 AM 68.0 °F - 64.9 °F 90% 29.95 in 10.0 mi South 5.8 mph - N/A   Clear
2:52 AM 66.0 °F - 63.0 °F 90% 29.94 in 10.0 mi SE 4.6 mph - N/A   Clear
3:52 AM 66.0 °F - 64.0 °F 93% 29.92 in 10.0 mi SSE 6.9 mph - N/A   Clear
4:52 AM 66.9 °F - 64.0 °F 90% 29.92 in 9.0 mi South 6.9 mph - N/A   Clear
5:52 AM 64.9 °F - 63.0 °F 93% 29.92 in 10.0 mi SE 6.9 mph - N/A   Clear
6:52 AM 63.0 °F - 62.1 °F 97% 29.93 in 6.0 mi SE 3.5 mph - N/A   Clear
7:52 AM 68.0 °F - 64.9 °F 90% 29.94 in 7.0 mi Calm Calm - N/A   Clear
8:52 AM 77.0 °F - 69.8 °F 78% 29.95 in 10.0 mi South 10.4 mph - N/A   Clear
9:28 AM 82.4 °F 86.3 °F 69.8 °F 66% 29.95 in 10.0 mi South 18.4 mph 25.3 mph N/A   Mostly Cloudy
9:52 AM 82.0 °F 85.5 °F 69.1 °F 65% 29.95 in 10.0 mi SSE 21.9 mph 26.5 mph N/A   Mostly Cloudy
10:03 AM 84.2 °F 88.4 °F 69.8 °F 62% 29.94 in 10.0 mi South 21.9 mph 31.1 mph N/A   Mostly Cloudy
10:52 AM 82.9 °F 85.8 °F 68.0 °F 60% 29.94 in 10.0 mi South 20.7 mph 27.6 mph N/A   Overcast
11:52 AM 84.9 °F 87.6 °F 66.9 °F 55% 29.92 in 10.0 mi South 19.6 mph 31.1 mph N/A   Mostly Cloudy
12:52 PM 88.0 °F 89.6 °F 64.9 °F 46% 29.88 in 10.0 mi South 21.9 mph 34.5 mph N/A   Mostly Cloudy
1:52 PM 87.1 °F 89.2 °F 66.0 °F 49% 29.86 in 10.0 mi South 23.0 mph 29.9 mph N/A   Scattered Clouds
2:52 PM 87.1 °F 88.9 °F 64.9 °F 48% 29.84 in 10.0 mi South 21.9 mph - N/A   Partly Cloudy
3:52 PM 86.0 °F 87.6 °F 64.9 °F 49% 29.83 in 10.0 mi SSE 21.9 mph 29.9 mph N/A   Scattered Clouds
4:52 PM 82.0 °F 83.4 °F 64.0 °F 54% 29.84 in 10.0 mi SSE 23.0 mph 27.6 mph N/A   Clear
5:52 PM 78.1 °F - 64.9 °F 64% 29.84 in 10.0 mi SSE 16.1 mph - N/A   Clear
6:52 PM 75.9 °F - 66.9 °F 74% 29.86 in 10.0 mi SSE 13.8 mph - N/A   Clear
7:52 PM 75.0 °F - 66.9 °F 76% 29.87 in 10.0 mi SSE 11.5 mph - N/A   Clear
8:52 PM 73.9 °F - 68.0 °F 82% 29.88 in 10.0 mi SSE 12.7 mph - N/A   Clear
9:52 PM 73.0 °F - 68.0 °F 84% 29.88 in 10.0 mi SE 11.5 mph - N/A   Clear
10:52 PM 73.0 °F - 68.0 °F 84% 29.89 in 10.0 mi SSE 9.2 mph - N/A   Clear
11:52 PM 72.0 °F - 68.0 °F 87% 29.88 in 10.0 mi SSE 9.2 mph - N/A   Clear